Weather History for KDDH - March, 2013

Change the Weather History Date:

Monday, March 18, 2013

  Actual Average Record
Temperature  
Mean Temperature 25 °F 34 °F  
Max Temperature 39 °F 44 °F 76 °F (2012)
Min Temperature 10 °F 23 °F 7 °F (2014)
Degree Days  
Heating Degree Days 40 31  
Month to date heating degree days 603 614  
Since 1 July heating degree days 5387 5865  
Cooling Degree Days 0 0  
Month to date cooling degree days 0 0  
Year to date cooling degree days 0 0  
Moisture  
Dew Point 7 °F    
Average Humidity 50    
Maximum Humidity 84    
Minimum Humidity 16    
Precipitation  
Precipitation 0.05 in 0.12 in 0.13 in (2009)
Month to date precipitation 0.85 1.72  
Year to date precipitation 3.51 6.71  
Sea Level Pressure  
Sea Level Pressure 30.26 in    
Wind  
Wind Speed 5 mph (SE)    
Max Wind Speed 17 mph    
Max Gust Speed 26 mph    
Visibility 8 miles    
Events Snow    
T = Trace of Precipitation, MM = Missing Value Source: NWS Daily Summary

Daily Weather History Graph

Daily Weather History Graph

Search for Another Location

Airport or City:

Trip Planner

Search our weather history database for the weather conditions in past years. The results will help you decide how hot, cold, wet, or windy it might be!

Date:

Astronomy

Mar. 18, 2013 Rise Set
Actual Time 6:59 AM EDT 7:03 PM EDT
Civil Twilight 6:31 AM EDT 7:31 PM EDT
Nautical Twilight 5:58 AM EDT 8:04 PM EDT
Astronomical Twilight 5:24 AM EDT 8:38 PM EDT
Moon 10:48 AM EDT (3/18) 1:08 AM EDT (3/18)
Length of Visible Light 13h 00m
Length of Day
12h 03m
Waxing Crescent, 40% of the Moon is Illuminated
Mar 18
Waxing Crescent
Mar 19
First Quarter
Mar 27
Full
Apr 3
Last Quarter
Apr 10
New

Hourly Weather History & Observations

Time (EDT) Temp. Windchill Dew Point Humidity Pressure Visibility Wind Dir Wind Speed Gust Speed Precip Events Conditions
12:54 AM 19.9 °F 13.4 °F -0.0 °F 42% 30.33 in 10.0 mi NW 4.6 mph - N/A   Clear
1:54 AM 17.1 °F - 1.0 °F 50% 30.36 in 10.0 mi Calm Calm - N/A   Clear
2:54 AM 14.0 °F - 5.0 °F 67% 30.38 in 10.0 mi Calm Calm - N/A   Clear
3:54 AM 12.9 °F - 5.0 °F 71% 30.38 in 10.0 mi Calm Calm - N/A   Clear
4:54 AM 12.0 °F 5.9 °F 3.9 °F 70% 30.38 in 10.0 mi South 3.5 mph - N/A   Clear
5:54 AM 10.9 °F 4.7 °F 1.9 °F 67% 30.40 in 10.0 mi SE 3.5 mph - N/A   Clear
6:54 AM 10.0 °F - 3.9 °F 76% 30.42 in 10.0 mi Calm Calm - N/A   Clear
7:54 AM 16.0 °F - -0.0 °F 49% 30.43 in 10.0 mi Calm Calm - N/A   Clear
8:54 AM 19.9 °F - 3.9 °F 50% 30.44 in 10.0 mi Calm Calm - N/A   Clear
9:54 AM 23.0 °F 18.4 °F 1.0 °F 39% 30.42 in 10.0 mi Variable 3.5 mph - N/A   Clear
10:54 AM 28.0 °F 24.2 °F -0.9 °F 29% 30.38 in 10.0 mi Variable 3.5 mph - N/A   Clear
11:54 AM 32.0 °F - -2.9 °F 22% 30.35 in 10.0 mi Calm Calm - N/A   Clear
12:54 PM 36.0 °F 29.0 °F -2.9 °F 19% 30.34 in 10.0 mi ESE 9.2 mph - N/A   Clear
1:54 PM 37.0 °F 32.4 °F -2.9 °F 18% 30.30 in 10.0 mi Variable 5.8 mph - N/A   Clear
2:54 PM 37.9 °F 32.7 °F -5.1 °F 16% 30.27 in 10.0 mi SE 6.9 mph - N/A   Clear
3:54 PM 37.9 °F 31.5 °F -2.9 °F 18% 30.25 in 10.0 mi SSE 9.2 mph - N/A   Clear
4:54 PM 37.0 °F 31.0 °F -2.0 °F 19% 30.23 in 10.0 mi SSE 8.1 mph - N/A   Clear
5:54 PM 35.1 °F 27.9 °F -2.0 °F 21% 30.22 in 10.0 mi SE 9.2 mph - N/A   Mostly Cloudy
6:54 PM 34.0 °F 25.5 °F -0.9 °F 23% 30.19 in 10.0 mi SE 11.5 mph - N/A   Overcast
7:54 PM 34.0 °F 28.0 °F 1.0 °F 25% 30.16 in 10.0 mi ESE 6.9 mph - N/A   Overcast
8:54 PM 33.1 °F 22.2 °F 7.0 °F 34% 30.16 in 10.0 mi SE 17.3 mph 26.5 mph N/A   Overcast
9:37 PM 30.2 °F 19.8 °F 17.6 °F 60% 30.13 in 6.0 mi SSE 13.8 mph - 0.00 in Snow Light Snow
9:54 PM 28.9 °F 19.2 °F 21.0 °F 72% 30.17 in 2.0 mi SSE 11.5 mph - 0.00 in Snow Light Snow
10:03 PM 28.4 °F 21.2 °F 21.2 °F 74% 30.13 in 1.5 mi SE 6.9 mph - 0.00 in Snow Light Snow
10:17 PM 28.4 °F 22.2 °F 21.2 °F 74% 30.12 in 1.0 mi ESE 5.8 mph - 0.00 in Snow Light Snow
10:31 PM 26.6 °F 20.0 °F 23.0 °F 86% 30.12 in 0.8 mi ESE 5.8 mph - 0.01 in Snow Light Snow
10:54 PM 27.0 °F - 23.0 °F 85% 30.14 in 0.8 mi Calm Calm - 0.02 in Snow Light Snow
11:22 PM 26.6 °F 19.1 °F 23.0 °F 86% 30.09 in 1.2 mi ESE 6.9 mph - 0.02 in Snow Light Snow
11:32 PM 28.4 °F 22.2 °F 21.2 °F 74% 30.08 in 1.5 mi ESE 5.8 mph - 0.03 in Snow Light Snow
11:54 PM 27.0 °F 18.0 °F 21.9 °F 81% 30.09 in 1.5 mi SE 9.2 mph - 0.03 in Snow Light Snow